User: anonymous   Login
Location: Veyrier
(46.1830°N, 6.2000°E)
Time: 19:42:47
(UTC+01:00)
Language:

Iridium 98 - Orbit

View from above orbital plane
View from above orbital plane
View from above satellite
View from above satellite

Ground track
Ground track

The orbit data is extracted from the following two-line orbital elements,

1 27451U 02031B   14354.57839755  .00000749  00000-0  26016-3 0  6389
2 27451 086.3949 042.4656 0002079 108.9401 000.7497 14.34225292660922
Epoch (UTC): 20 December 2014 13:52:53
Eccentricity: 0.0002079
inclination: 86.3949°
perigee height: 776 km
apogee height: 779 km
right ascension of ascending node: 42.4656°
argument of perigee: 108.9401°
revolutions per day: 14.34225292
mean anomaly at epoch: 0.7497°
orbit number at epoch: 66092

The dashed part of the orbit path shows where the satellite is in the earth's shadow,  

DLR